#datetime,building,power
2022-05-30T00:00:00,mfh,18.40
2022-05-30T00:01:00,mfh,17.76
2022-05-30T00:02:00,mfh,17.74
2022-05-30T00:03:00,mfh,17.74
2022-05-30T00:04:00,mfh,17.58
2022-05-30T00:05:00,mfh,17.57
2022-05-30T00:06:00,mfh,18.19
2022-05-30T00:07:00,mfh,18.10
2022-05-30T00:08:00,mfh,18.27
2022-05-30T00:09:00,mfh,18.23
2022-05-30T00:10:00,mfh,18.42
2022-05-30T00:11:00,mfh,17.46
2022-05-30T00:12:00,mfh,17.46
2022-05-30T00:13:00,mfh,17.45
2022-05-30T00:14:00,mfh,17.94
2022-05-30T00:15:00,mfh,17.88
2022-05-30T00:16:00,mfh,17.60
2022-05-30T00:17:00,mfh,17.58
2022-05-30T00:18:00,mfh,16.98
2022-05-30T00:19:00,mfh,17.75
2022-05-30T00:20:00,mfh,17.84
2022-05-30T00:21:00,mfh,17.79
2022-05-30T00:22:00,mfh,18.46
2022-05-30T00:23:00,mfh,17.61
2022-05-30T00:24:00,mfh,17.96
2022-05-30T00:25:00,mfh,17.94
2022-05-30T00:26:00,mfh,17.23
2022-05-30T00:27:00,mfh,17.23
2022-05-30T00:28:00,mfh,17.23
2022-05-30T00:29:00,mfh,17.30
2022-05-30T00:30:00,mfh,17.29
2022-05-30T00:31:00,mfh,17.87
2022-05-30T00:32:00,mfh,17.93
2022-05-30T00:33:00,mfh,17.73
2022-05-30T00:34:00,mfh,17.07
2022-05-30T00:35:00,mfh,17.08
2022-05-30T00:36:00,mfh,16.86
2022-05-30T00:37:00,mfh,16.97
2022-05-30T00:38:00,mfh,16.91
2022-05-30T00:39:00,mfh,17.50
2022-05-30T00:40:00,mfh,17.55
2022-05-30T00:41:00,mfh,17.62
2022-05-30T00:42:00,mfh,17.66
2022-05-30T00:43:00,mfh,17.06
2022-05-30T00:44:00,mfh,16.97
2022-05-30T00:45:00,mfh,17.07
2022-05-30T00:46:00,mfh,17.09
2022-05-30T00:47:00,mfh,17.70
2022-05-30T00:48:00,mfh,17.72
2022-05-30T00:49:00,mfh,17.59
2022-05-30T00:50:00,mfh,17.61
2022-05-30T00:51:00,mfh,16.81
2022-05-30T00:52:00,mfh,16.89
2022-05-30T00:53:00,mfh,16.97
2022-05-30T00:54:00,mfh,17.13
2022-05-30T00:55:00,mfh,17.69
2022-05-30T00:56:00,mfh,17.66
2022-05-30T00:57:00,mfh,17.69
2022-05-30T00:58:00,mfh,17.68
2022-05-30T00:59:00,mfh,16.98
2022-05-30T01:00:00,mfh,16.93
2022-05-30T01:01:00,mfh,16.93
2022-05-30T01:02:00,mfh,16.84
2022-05-30T01:03:00,mfh,17.53
2022-05-30T01:04:00,mfh,17.55
2022-05-30T01:05:00,mfh,17.56
2022-05-30T01:06:00,mfh,17.32
2022-05-30T01:07:00,mfh,16.64
2022-05-30T01:08:00,mfh,16.64
2022-05-30T01:09:00,mfh,16.68
2022-05-30T01:10:00,mfh,16.70
2022-05-30T01:11:00,mfh,17.29
2022-05-30T01:12:00,mfh,17.30
2022-05-30T01:13:00,mfh,17.88
2022-05-30T01:14:00,mfh,17.42
2022-05-30T01:15:00,mfh,16.83
2022-05-30T01:16:00,mfh,16.85
2022-05-30T01:17:00,mfh,17.20
2022-05-30T01:18:00,mfh,17.33
2022-05-30T01:19:00,mfh,16.74
2022-05-30T01:20:00,mfh,17.42
2022-05-30T01:21:00,mfh,17.39
2022-05-30T01:22:00,mfh,17.57
2022-05-30T01:23:00,mfh,17.67
2022-05-30T01:24:00,mfh,17.21
2022-05-30T01:25:00,mfh,17.29
2022-05-30T01:26:00,mfh,18.05
2022-05-30T01:27:00,mfh,18.02
2022-05-30T01:28:00,mfh,18.64
2022-05-30T01:29:00,mfh,18.69
2022-05-30T01:30:00,mfh,18.00
2022-05-30T01:31:00,mfh,18.00
2022-05-30T01:32:00,mfh,17.25
2022-05-30T01:33:00,mfh,17.24
2022-05-30T01:34:00,mfh,17.17
2022-05-30T01:35:00,mfh,16.98
2022-05-30T01:36:00,mfh,17.57
2022-05-30T01:37:00,mfh,17.80
2022-05-30T01:38:00,mfh,17.81
2022-05-30T01:39:00,mfh,17.90
2022-05-30T01:40:00,mfh,17.08
2022-05-30T01:41:00,mfh,17.06
2022-05-30T01:42:00,mfh,16.96
2022-05-30T01:43:00,mfh,17.03
2022-05-30T01:44:00,mfh,17.11
2022-05-30T01:45:00,mfh,17.82
2022-05-30T01:46:00,mfh,17.82
2022-05-30T01:47:00,mfh,17.84
2022-05-30T01:48:00,mfh,17.92
2022-05-30T01:49:00,mfh,17.22
2022-05-30T01:50:00,mfh,17.10
2022-05-30T01:51:00,mfh,17.32
2022-05-30T01:52:00,mfh,17.11
2022-05-30T01:53:00,mfh,17.96
2022-05-30T01:54:00,mfh,17.88
2022-05-30T01:55:00,mfh,17.64
2022-05-30T01:56:00,mfh,17.60
2022-05-30T01:57:00,mfh,16.91
2022-05-30T01:58:00,mfh,16.91
2022-05-30T01:59:00,mfh,16.90
2022-05-30T02:00:00,mfh,16.99
2022-05-30T02:01:00,mfh,17.52
2022-05-30T02:02:00,mfh,17.52
2022-05-30T02:03:00,mfh,17.47
2022-05-30T02:04:00,mfh,17.46
2022-05-30T02:05:00,mfh,17.31
2022-05-30T02:06:00,mfh,16.87
2022-05-30T02:07:00,mfh,16.65
2022-05-30T02:08:00,mfh,16.65
2022-05-30T02:09:00,mfh,17.72
2022-05-30T02:10:00,mfh,17.23
2022-05-30T02:11:00,mfh,17.28
2022-05-30T02:12:00,mfh,17.32
2022-05-30T02:13:00,mfh,17.29
2022-05-30T02:14:00,mfh,16.54
2022-05-30T02:15:00,mfh,16.61
2022-05-30T02:16:00,mfh,16.61
2022-05-30T02:17:00,mfh,16.61
2022-05-30T02:18:00,mfh,17.23
2022-05-30T02:19:00,mfh,17.36
2022-05-30T02:20:00,mfh,17.35
2022-05-30T02:21:00,mfh,17.50
2022-05-30T02:22:00,mfh,17.14
2022-05-30T02:23:00,mfh,17.00
2022-05-30T02:24:00,mfh,16.95
2022-05-30T02:25:00,mfh,16.83
2022-05-30T02:26:00,mfh,17.91
2022-05-30T02:27:00,mfh,17.40
2022-05-30T02:28:00,mfh,17.45
2022-05-30T02:29:00,mfh,17.49
2022-05-30T02:30:00,mfh,16.69
2022-05-30T02:31:00,mfh,16.86
2022-05-30T02:32:00,mfh,17.41
2022-05-30T02:33:00,mfh,17.52
2022-05-30T02:34:00,mfh,17.94
2022-05-30T02:35:00,mfh,17.98
2022-05-30T02:36:00,mfh,17.09
2022-05-30T02:37:00,mfh,17.14
2022-05-30T02:38:00,mfh,16.43
2022-05-30T02:39:00,mfh,16.88
2022-05-30T02:40:00,mfh,16.36
2022-05-30T02:41:00,mfh,16.42
2022-05-30T02:42:00,mfh,17.07
2022-05-30T02:43:00,mfh,17.06
2022-05-30T02:44:00,mfh,17.19
2022-05-30T02:45:00,mfh,17.43
2022-05-30T02:46:00,mfh,16.50
2022-05-30T02:47:00,mfh,16.49
2022-05-30T02:48:00,mfh,16.41
2022-05-30T02:49:00,mfh,16.40
2022-05-30T02:50:00,mfh,16.50
2022-05-30T02:51:00,mfh,17.11
2022-05-30T02:52:00,mfh,17.29
2022-05-30T02:53:00,mfh,17.42
2022-05-30T02:54:00,mfh,17.46
2022-05-30T02:55:00,mfh,17.09
2022-05-30T02:56:00,mfh,16.84
2022-05-30T02:57:00,mfh,16.84
2022-05-30T02:58:00,mfh,16.84
2022-05-30T02:59:00,mfh,17.43
2022-05-30T03:00:00,mfh,17.45
2022-05-30T03:01:00,mfh,17.56
2022-05-30T03:02:00,mfh,17.58
2022-05-30T03:03:00,mfh,16.67
2022-05-30T03:04:00,mfh,16.67
2022-05-30T03:05:00,mfh,17.25
2022-05-30T03:06:00,mfh,16.86
2022-05-30T03:07:00,mfh,17.62
2022-05-30T03:08:00,mfh,17.58
2022-05-30T03:09:00,mfh,17.69
2022-05-30T03:10:00,mfh,17.62
2022-05-30T03:11:00,mfh,16.93
2022-05-30T03:12:00,mfh,16.94
2022-05-30T03:13:00,mfh,16.93
2022-05-30T03:14:00,mfh,16.92
2022-05-30T03:15:00,mfh,17.44
2022-05-30T03:16:00,mfh,17.42
2022-05-30T03:17:00,mfh,17.41
2022-05-30T03:18:00,mfh,17.65
2022-05-30T03:19:00,mfh,17.04
2022-05-30T03:20:00,mfh,17.21
2022-05-30T03:21:00,mfh,17.21
2022-05-30T03:22:00,mfh,17.20
2022-05-30T03:23:00,mfh,17.17
2022-05-30T03:24:00,mfh,17.78
2022-05-30T03:25:00,mfh,18.01
2022-05-30T03:26:00,mfh,20.73
2022-05-30T03:27:00,mfh,26.70
2022-05-30T03:28:00,mfh,26.00
2022-05-30T03:29:00,mfh,25.99
2022-05-30T03:30:00,mfh,25.99
2022-05-30T03:31:00,mfh,25.88
2022-05-30T03:32:00,mfh,26.06
2022-05-30T03:33:00,mfh,26.00
2022-05-30T03:34:00,mfh,25.99
2022-05-30T03:35:00,mfh,27.58
2022-05-30T03:36:00,mfh,25.93
2022-05-30T03:37:00,mfh,26.00
2022-05-30T03:38:00,mfh,27.39
2022-05-30T03:39:00,mfh,26.79
2022-05-30T03:40:00,mfh,27.39
2022-05-30T03:41:00,mfh,27.89
2022-05-30T03:42:00,mfh,27.53
2022-05-30T03:43:00,mfh,27.02
2022-05-30T03:44:00,mfh,26.45
2022-05-30T03:45:00,mfh,26.05
2022-05-30T03:46:00,mfh,26.03
2022-05-30T03:47:00,mfh,26.02
2022-05-30T03:48:00,mfh,26.12
2022-05-30T03:49:00,mfh,26.76
2022-05-30T03:50:00,mfh,27.81
2022-05-30T03:51:00,mfh,26.98
2022-05-30T03:52:00,mfh,26.26
2022-05-30T03:53:00,mfh,26.35
2022-05-30T03:54:00,mfh,26.30
2022-05-30T03:55:00,mfh,26.37
2022-05-30T03:56:00,mfh,26.29
2022-05-30T03:57:00,mfh,25.64
2022-05-30T03:58:00,mfh,26.52
2022-05-30T03:59:00,mfh,25.65
2022-05-30T04:00:00,mfh,25.71
2022-05-30T04:01:00,mfh,24.80
2022-05-30T04:02:00,mfh,25.25
2022-05-30T04:03:00,mfh,24.72
2022-05-30T04:04:00,mfh,24.83
2022-05-30T04:05:00,mfh,25.99
2022-05-30T04:06:00,mfh,25.59
2022-05-30T04:07:00,mfh,25.59
2022-05-30T04:08:00,mfh,25.71
2022-05-30T04:09:00,mfh,25.11
2022-05-30T04:10:00,mfh,24.88
2022-05-30T04:11:00,mfh,24.88
2022-05-30T04:12:00,mfh,24.93
2022-05-30T04:13:00,mfh,25.53
2022-05-30T04:14:00,mfh,25.57
2022-05-30T04:15:00,mfh,25.61
2022-05-30T04:16:00,mfh,26.36
2022-05-30T04:17:00,mfh,25.88
2022-05-30T04:18:00,mfh,25.07
2022-05-30T04:19:00,mfh,25.23
2022-05-30T04:20:00,mfh,25.28
2022-05-30T04:21:00,mfh,25.20
2022-05-30T04:22:00,mfh,25.82
2022-05-30T04:23:00,mfh,25.87
2022-05-30T04:24:00,mfh,25.84
2022-05-30T04:25:00,mfh,25.94
2022-05-30T04:26:00,mfh,25.26
2022-05-30T04:27:00,mfh,25.26
2022-05-30T04:28:00,mfh,25.12
2022-05-30T04:29:00,mfh,26.14
2022-05-30T04:30:00,mfh,25.91
2022-05-30T04:31:00,mfh,25.77
2022-05-30T04:32:00,mfh,25.78
2022-05-30T04:33:00,mfh,25.52
2022-05-30T04:34:00,mfh,25.86
2022-05-30T04:35:00,mfh,25.77
2022-05-30T04:36:00,mfh,25.55
2022-05-30T04:37:00,mfh,25.60
2022-05-30T04:38:00,mfh,26.22
2022-05-30T04:39:00,mfh,26.24
2022-05-30T04:40:00,mfh,26.23
2022-05-30T04:41:00,mfh,25.73
2022-05-30T04:42:00,mfh,25.80
2022-05-30T04:43:00,mfh,25.13
2022-05-30T04:44:00,mfh,25.11
2022-05-30T04:45:00,mfh,25.82
2022-05-30T04:46:00,mfh,26.23
2022-05-30T04:47:00,mfh,26.87
2022-05-30T04:48:00,mfh,26.88
2022-05-30T04:49:00,mfh,26.14
2022-05-30T04:50:00,mfh,26.16
2022-05-30T04:51:00,mfh,25.42
2022-05-30T04:52:00,mfh,25.40
2022-05-30T04:53:00,mfh,25.39
2022-05-30T04:54:00,mfh,25.34
2022-05-30T04:55:00,mfh,25.91
2022-05-30T04:56:00,mfh,25.95
2022-05-30T04:57:00,mfh,26.11
2022-05-30T04:58:00,mfh,25.53
2022-05-30T04:59:00,mfh,25.07
2022-05-30T05:00:00,mfh,24.93
2022-05-30T05:01:00,mfh,44.46
2022-05-30T05:02:00,mfh,44.57
2022-05-30T05:03:00,mfh,45.97
2022-05-30T05:04:00,mfh,46.14
2022-05-30T05:05:00,mfh,47.14
2022-05-30T05:06:00,mfh,46.59
2022-05-30T05:07:00,mfh,45.44
2022-05-30T05:08:00,mfh,45.42
2022-05-30T05:09:00,mfh,44.74
2022-05-30T05:10:00,mfh,44.70
2022-05-30T05:11:00,mfh,46.04
2022-05-30T05:12:00,mfh,45.99
2022-05-30T05:13:00,mfh,46.04
2022-05-30T05:14:00,mfh,46.06
2022-05-30T05:15:00,mfh,45.47
2022-05-30T05:16:00,mfh,46.27
2022-05-30T05:17:00,mfh,44.76
2022-05-30T05:18:00,mfh,46.07
2022-05-30T05:19:00,mfh,46.70
2022-05-30T05:20:00,mfh,47.28
2022-05-30T05:21:00,mfh,47.38
2022-05-30T05:22:00,mfh,47.36
2022-05-30T05:23:00,mfh,47.28
2022-05-30T05:24:00,mfh,46.70
2022-05-30T05:25:00,mfh,46.72
2022-05-30T05:26:00,mfh,46.66
2022-05-30T05:27:00,mfh,45.31
2022-05-30T05:28:00,mfh,46.70
2022-05-30T05:29:00,mfh,46.30
2022-05-30T05:30:00,mfh,46.48
2022-05-30T05:31:00,mfh,46.71
2022-05-30T05:32:00,mfh,45.14
2022-05-30T05:33:00,mfh,45.84
2022-05-30T05:34:00,mfh,45.71
2022-05-30T05:35:00,mfh,46.15
2022-05-30T05:36:00,mfh,46.22
2022-05-30T05:37:00,mfh,46.51
2022-05-30T05:38:00,mfh,46.46
2022-05-30T05:39:00,mfh,46.35
2022-05-30T05:40:00,mfh,45.38
2022-05-30T05:41:00,mfh,45.12
2022-05-30T05:42:00,mfh,45.64
2022-05-30T05:43:00,mfh,45.06
2022-05-30T05:44:00,mfh,44.99
2022-05-30T05:45:00,mfh,45.58
2022-05-30T05:46:00,mfh,45.38
2022-05-30T05:47:00,mfh,45.72
2022-05-30T05:48:00,mfh,45.45
2022-05-30T05:49:00,mfh,44.48
2022-05-30T05:50:00,mfh,45.18
2022-05-30T05:51:00,mfh,44.46
2022-05-30T05:52:00,mfh,45.62
2022-05-30T05:53:00,mfh,46.49
2022-05-30T05:54:00,mfh,46.49
2022-05-30T05:55:00,mfh,45.86
2022-05-30T05:56:00,mfh,45.84
2022-05-30T05:57:00,mfh,44.34
2022-05-30T05:58:00,mfh,44.38
2022-05-30T05:59:00,mfh,44.10
2022-05-30T06:00:00,mfh,44.06
2022-05-30T06:01:00,mfh,44.94
2022-05-30T06:02:00,mfh,44.86
2022-05-30T06:03:00,mfh,44.79
2022-05-30T06:04:00,mfh,44.83
2022-05-30T06:05:00,mfh,43.55
2022-05-30T06:06:00,mfh,43.53
2022-05-30T06:07:00,mfh,43.47
2022-05-30T06:08:00,mfh,43.41
2022-05-30T06:09:00,mfh,44.12
2022-05-30T06:10:00,mfh,44.03
2022-05-30T06:11:00,mfh,44.07
2022-05-30T06:12:00,mfh,45.64
2022-05-30T06:13:00,mfh,45.07
2022-05-30T06:14:00,mfh,45.16
2022-05-30T06:15:00,mfh,43.50
2022-05-30T06:16:00,mfh,43.76
2022-05-30T06:17:00,mfh,44.33
2022-05-30T06:18:00,mfh,44.52
2022-05-30T06:19:00,mfh,44.46
2022-05-30T06:20:00,mfh,44.47
2022-05-30T06:21:00,mfh,45.34
2022-05-30T06:22:00,mfh,44.03
2022-05-30T06:23:00,mfh,44.17
2022-05-30T06:24:00,mfh,44.20
2022-05-30T06:25:00,mfh,44.09
2022-05-30T06:26:00,mfh,44.78
2022-05-30T06:27:00,mfh,44.99
2022-05-30T06:28:00,mfh,44.61
2022-05-30T06:29:00,mfh,44.57
2022-05-30T06:30:00,mfh,43.86
2022-05-30T06:31:00,mfh,43.82
2022-05-30T06:32:00,mfh,43.30
2022-05-30T06:33:00,mfh,43.55
2022-05-30T06:34:00,mfh,44.02
2022-05-30T06:35:00,mfh,44.02
2022-05-30T06:36:00,mfh,43.98
2022-05-30T06:37:00,mfh,43.67
2022-05-30T06:38:00,mfh,43.06
2022-05-30T06:39:00,mfh,43.02
2022-05-30T06:40:00,mfh,43.20
2022-05-30T06:41:00,mfh,43.17
2022-05-30T06:42:00,mfh,43.57
2022-05-30T06:43:00,mfh,43.74
2022-05-30T06:44:00,mfh,43.70
2022-05-30T06:45:00,mfh,43.71
2022-05-30T06:46:00,mfh,43.76
2022-05-30T06:47:00,mfh,43.27
2022-05-30T06:48:00,mfh,43.20
2022-05-30T06:49:00,mfh,43.22
2022-05-30T06:50:00,mfh,43.14
2022-05-30T06:51:00,mfh,43.86
2022-05-30T06:52:00,mfh,43.94
2022-05-30T06:53:00,mfh,44.06
2022-05-30T06:54:00,mfh,43.96
2022-05-30T06:55:00,mfh,43.29
2022-05-30T06:56:00,mfh,42.99
2022-05-30T06:57:00,mfh,43.03
2022-05-30T06:58:00,mfh,43.21
2022-05-30T06:59:00,mfh,43.94
2022-05-30T07:00:00,mfh,43.77
2022-05-30T07:01:00,mfh,43.75
2022-05-30T07:02:00,mfh,44.51
2022-05-30T07:03:00,mfh,43.70
2022-05-30T07:04:00,mfh,43.94
2022-05-30T07:05:00,mfh,43.68
2022-05-30T07:06:00,mfh,43.18
2022-05-30T07:07:00,mfh,43.62
2022-05-30T07:08:00,mfh,43.74
2022-05-30T07:09:00,mfh,43.88
2022-05-30T07:10:00,mfh,43.85
2022-05-30T07:11:00,mfh,43.16
2022-05-30T07:12:00,mfh,43.27
2022-05-30T07:13:00,mfh,43.27
2022-05-30T07:14:00,mfh,43.45
2022-05-30T07:15:00,mfh,44.04
2022-05-30T07:16:00,mfh,44.12
2022-05-30T07:17:00,mfh,44.07
2022-05-30T07:18:00,mfh,43.92
2022-05-30T07:19:00,mfh,43.26
2022-05-30T07:20:00,mfh,43.20
2022-05-30T07:21:00,mfh,43.36
2022-05-30T07:22:00,mfh,43.32
2022-05-30T07:23:00,mfh,43.87
2022-05-30T07:24:00,mfh,43.89
2022-05-30T07:25:00,mfh,43.69
2022-05-30T07:26:00,mfh,44.30
2022-05-30T07:27:00,mfh,43.15
2022-05-30T07:28:00,mfh,43.13
2022-05-30T07:29:00,mfh,43.03
2022-05-30T07:30:00,mfh,42.90
2022-05-30T07:31:00,mfh,42.85
2022-05-30T07:32:00,mfh,43.32
2022-05-30T07:33:00,mfh,43.43
2022-05-30T07:34:00,mfh,43.48
2022-05-30T07:35:00,mfh,43.49
2022-05-30T07:36:00,mfh,42.64
2022-05-30T07:37:00,mfh,43.02
2022-05-30T07:38:00,mfh,42.65
2022-05-30T07:39:00,mfh,42.88
2022-05-30T07:40:00,mfh,43.47
2022-05-30T07:41:00,mfh,43.56
2022-05-30T07:42:00,mfh,42.81
2022-05-30T07:43:00,mfh,43.14
2022-05-30T07:44:00,mfh,42.32
2022-05-30T07:45:00,mfh,42.34
2022-05-30T07:46:00,mfh,42.57
2022-05-30T07:47:00,mfh,42.33
2022-05-30T07:48:00,mfh,43.29
2022-05-30T07:49:00,mfh,42.87
2022-05-30T07:50:00,mfh,43.63
2022-05-30T07:51:00,mfh,42.89
2022-05-30T07:52:00,mfh,42.30
2022-05-30T07:53:00,mfh,42.61
2022-05-30T07:54:00,mfh,42.26
2022-05-30T07:55:00,mfh,42.01
2022-05-30T07:56:00,mfh,41.98
2022-05-30T07:57:00,mfh,42.63
2022-05-30T07:58:00,mfh,42.69
2022-05-30T07:59:00,mfh,42.63
2022-05-30T08:00:00,mfh,42.57
2022-05-30T08:01:00,mfh,41.86
2022-05-30T08:02:00,mfh,41.89
2022-05-30T08:03:00,mfh,41.85
2022-05-30T08:04:00,mfh,41.79
2022-05-30T08:05:00,mfh,42.50
2022-05-30T08:06:00,mfh,42.39
2022-05-30T08:07:00,mfh,42.26
2022-05-30T08:08:00,mfh,42.34
2022-05-30T08:09:00,mfh,41.67
2022-05-30T08:10:00,mfh,41.56
2022-05-30T08:11:00,mfh,41.61
2022-05-30T08:12:00,mfh,41.82
2022-05-30T08:13:00,mfh,43.29
2022-05-30T08:14:00,mfh,43.39
2022-05-30T08:15:00,mfh,43.34
2022-05-30T08:16:00,mfh,43.45
2022-05-30T08:17:00,mfh,42.01
2022-05-30T08:18:00,mfh,41.71
2022-05-30T08:19:00,mfh,41.80
2022-05-30T08:20:00,mfh,41.78
2022-05-30T08:21:00,mfh,43.60
2022-05-30T08:22:00,mfh,42.47
2022-05-30T08:23:00,mfh,42.45
2022-05-30T08:24:00,mfh,42.43
2022-05-30T08:25:00,mfh,41.73
2022-05-30T08:26:00,mfh,41.53
2022-05-30T08:27:00,mfh,41.54
2022-05-30T08:28:00,mfh,41.57
2022-05-30T08:29:00,mfh,42.27
2022-05-30T08:30:00,mfh,42.31
2022-05-30T08:31:00,mfh,42.52
2022-05-30T08:32:00,mfh,42.56
2022-05-30T08:33:00,mfh,41.83
2022-05-30T08:34:00,mfh,41.84
2022-05-30T08:35:00,mfh,42.97
2022-05-30T08:36:00,mfh,41.87
2022-05-30T08:37:00,mfh,42.30
2022-05-30T08:38:00,mfh,42.72
2022-05-30T08:39:00,mfh,42.79
2022-05-30T08:40:00,mfh,42.72
2022-05-30T08:41:00,mfh,42.68
2022-05-30T08:42:00,mfh,42.29
2022-05-30T08:43:00,mfh,42.26
2022-05-30T08:44:00,mfh,42.30
2022-05-30T08:45:00,mfh,42.17
2022-05-30T08:46:00,mfh,43.30
2022-05-30T08:47:00,mfh,42.77
2022-05-30T08:48:00,mfh,43.41
2022-05-30T08:49:00,mfh,43.30
2022-05-30T08:50:00,mfh,42.06
2022-05-30T08:51:00,mfh,41.79
2022-05-30T08:52:00,mfh,41.90
2022-05-30T08:53:00,mfh,41.77
2022-05-30T08:54:00,mfh,42.36
2022-05-30T08:55:00,mfh,42.39
2022-05-30T08:56:00,mfh,42.35
2022-05-30T08:57:00,mfh,42.34
2022-05-30T08:58:00,mfh,42.52
2022-05-30T08:59:00,mfh,41.68
2022-05-30T09:00:00,mfh,41.78
2022-05-30T09:01:00,mfh,41.81
2022-05-30T09:02:00,mfh,41.74
2022-05-30T09:03:00,mfh,42.32
2022-05-30T09:04:00,mfh,43.72
2022-05-30T09:05:00,mfh,44.20
2022-05-30T09:06:00,mfh,43.92
2022-05-30T09:07:00,mfh,43.27
2022-05-30T09:08:00,mfh,43.46
2022-05-30T09:09:00,mfh,43.39
2022-05-30T09:10:00,mfh,43.37
2022-05-30T09:11:00,mfh,44.12
2022-05-30T09:12:00,mfh,44.32
2022-05-30T09:13:00,mfh,44.34
2022-05-30T09:14:00,mfh,44.19
2022-05-30T09:15:00,mfh,43.46
2022-05-30T09:16:00,mfh,43.48
2022-05-30T09:17:00,mfh,43.50
2022-05-30T09:18:00,mfh,43.48
2022-05-30T09:19:00,mfh,44.03
2022-05-30T09:20:00,mfh,44.00
2022-05-30T09:21:00,mfh,43.93
2022-05-30T09:22:00,mfh,44.15
2022-05-30T09:23:00,mfh,43.95
2022-05-30T09:24:00,mfh,43.51
2022-05-30T09:25:00,mfh,42.63
2022-05-30T09:26:00,mfh,42.64
2022-05-30T09:27:00,mfh,42.65
2022-05-30T09:28:00,mfh,42.52
2022-05-30T09:29:00,mfh,42.44
2022-05-30T09:30:00,mfh,42.39
2022-05-30T09:31:00,mfh,42.41
2022-05-30T09:32:00,mfh,41.77
2022-05-30T09:33:00,mfh,41.75
2022-05-30T09:34:00,mfh,42.47
2022-05-30T09:35:00,mfh,42.02
2022-05-30T09:36:00,mfh,42.45
2022-05-30T09:37:00,mfh,42.46
2022-05-30T09:38:00,mfh,42.54
2022-05-30T09:39:00,mfh,42.61
2022-05-30T09:40:00,mfh,41.65
2022-05-30T09:41:00,mfh,41.66
2022-05-30T09:42:00,mfh,42.46
2022-05-30T09:43:00,mfh,41.60
2022-05-30T09:44:00,mfh,42.18
2022-05-30T09:45:00,mfh,42.42
2022-05-30T09:46:00,mfh,43.04
2022-05-30T09:47:00,mfh,42.32
2022-05-30T09:48:00,mfh,41.66
2022-05-30T09:49:00,mfh,41.66
2022-05-30T09:50:00,mfh,41.77
2022-05-30T09:51:00,mfh,41.90
2022-05-30T09:52:00,mfh,42.30
2022-05-30T09:53:00,mfh,42.32
2022-05-30T09:54:00,mfh,42.47
2022-05-30T09:55:00,mfh,42.73
2022-05-30T09:56:00,mfh,41.61
2022-05-30T09:57:00,mfh,41.68
2022-05-30T09:58:00,mfh,41.80
2022-05-30T09:59:00,mfh,41.84
2022-05-30T10:00:00,mfh,41.74
2022-05-30T10:01:00,mfh,42.92
2022-05-30T10:02:00,mfh,42.40
2022-05-30T10:03:00,mfh,42.42
2022-05-30T10:04:00,mfh,41.72
2022-05-30T10:05:00,mfh,41.57
2022-05-30T10:06:00,mfh,41.53
2022-05-30T10:07:00,mfh,41.53
2022-05-30T10:08:00,mfh,41.47
2022-05-30T10:09:00,mfh,42.17
2022-05-30T10:10:00,mfh,42.29
2022-05-30T10:11:00,mfh,42.31
2022-05-30T10:12:00,mfh,42.31
2022-05-30T10:13:00,mfh,41.56
2022-05-30T10:14:00,mfh,41.57
2022-05-30T10:15:00,mfh,41.39
2022-05-30T10:16:00,mfh,41.39
2022-05-30T10:17:00,mfh,42.00
2022-05-30T10:18:00,mfh,42.26
2022-05-30T10:19:00,mfh,42.16
2022-05-30T10:20:00,mfh,42.22
2022-05-30T10:21:00,mfh,42.53
2022-05-30T10:22:00,mfh,43.00
2022-05-30T10:23:00,mfh,43.09
2022-05-30T10:24:00,mfh,42.97
2022-05-30T10:25:00,mfh,42.73
2022-05-30T10:26:00,mfh,43.45
2022-05-30T10:27:00,mfh,43.42
2022-05-30T10:28:00,mfh,43.42
2022-05-30T10:29:00,mfh,43.39
2022-05-30T10:30:00,mfh,42.68
2022-05-30T10:31:00,mfh,42.66
2022-05-30T10:32:00,mfh,43.26
2022-05-30T10:33:00,mfh,42.87
2022-05-30T10:34:00,mfh,43.38
2022-05-30T10:35:00,mfh,43.96
2022-05-30T10:36:00,mfh,44.14
2022-05-30T10:37:00,mfh,44.18
2022-05-30T10:38:00,mfh,43.65
2022-05-30T10:39:00,mfh,43.56
2022-05-30T10:40:00,mfh,43.77
2022-05-30T10:41:00,mfh,44.19
2022-05-30T10:42:00,mfh,44.46
2022-05-30T10:43:00,mfh,44.40
2022-05-30T10:44:00,mfh,44.40
2022-05-30T10:45:00,mfh,44.61
2022-05-30T10:46:00,mfh,44.58
2022-05-30T10:47:00,mfh,43.89
2022-05-30T10:48:00,mfh,43.73
2022-05-30T10:49:00,mfh,43.79
2022-05-30T10:50:00,mfh,43.73
2022-05-30T10:51:00,mfh,44.38
2022-05-30T10:52:00,mfh,44.26
2022-05-30T10:53:00,mfh,44.34
2022-05-30T10:54:00,mfh,44.55
2022-05-30T10:55:00,mfh,43.73
2022-05-30T10:56:00,mfh,43.32
2022-05-30T10:57:00,mfh,43.27
2022-05-30T10:58:00,mfh,42.30
2022-05-30T10:59:00,mfh,42.84
2022-05-30T11:00:00,mfh,42.90
2022-05-30T11:01:00,mfh,43.07
2022-05-30T11:02:00,mfh,43.21
2022-05-30T11:03:00,mfh,43.73
2022-05-30T11:04:00,mfh,43.40
2022-05-30T11:05:00,mfh,42.75
2022-05-30T11:06:00,mfh,42.65
2022-05-30T11:07:00,mfh,43.61
2022-05-30T11:08:00,mfh,43.54
2022-05-30T11:09:00,mfh,44.02
2022-05-30T11:10:00,mfh,43.40
2022-05-30T11:11:00,mfh,42.75
2022-05-30T11:12:00,mfh,42.98
2022-05-30T11:13:00,mfh,43.08
2022-05-30T11:14:00,mfh,42.85
2022-05-30T11:15:00,mfh,43.46
2022-05-30T11:16:00,mfh,43.52
2022-05-30T11:17:00,mfh,43.50
2022-05-30T11:18:00,mfh,43.50
2022-05-30T11:19:00,mfh,43.00
2022-05-30T11:20:00,mfh,43.04
2022-05-30T11:21:00,mfh,43.15
2022-05-30T11:22:00,mfh,42.97
2022-05-30T11:23:00,mfh,42.99
2022-05-30T11:24:00,mfh,43.49
2022-05-30T11:25:00,mfh,43.54
2022-05-30T11:26:00,mfh,43.51
2022-05-30T11:27:00,mfh,42.82
2022-05-30T11:28:00,mfh,42.72
2022-05-30T11:29:00,mfh,43.01
2022-05-30T11:30:00,mfh,42.88
2022-05-30T11:31:00,mfh,42.96
2022-05-30T11:32:00,mfh,43.55
2022-05-30T11:33:00,mfh,43.52
2022-05-30T11:34:00,mfh,43.52
2022-05-30T11:35:00,mfh,43.81
2022-05-30T11:36:00,mfh,42.68
2022-05-30T11:37:00,mfh,44.04
2022-05-30T11:38:00,mfh,44.00
2022-05-30T11:39:00,mfh,43.90
2022-05-30T11:40:00,mfh,44.62
2022-05-30T11:41:00,mfh,44.65
2022-05-30T11:42:00,mfh,44.66
2022-05-30T11:43:00,mfh,44.69
2022-05-30T11:44:00,mfh,44.41
2022-05-30T11:45:00,mfh,43.90
2022-05-30T11:46:00,mfh,44.72
2022-05-30T11:47:00,mfh,44.73
2022-05-30T11:48:00,mfh,45.36
2022-05-30T11:49:00,mfh,45.42
2022-05-30T11:50:00,mfh,44.61
2022-05-30T11:51:00,mfh,44.66
2022-05-30T11:52:00,mfh,44.07
2022-05-30T11:53:00,mfh,44.28
2022-05-30T11:54:00,mfh,44.22
2022-05-30T11:55:00,mfh,44.29
2022-05-30T11:56:00,mfh,44.21
2022-05-30T11:57:00,mfh,44.78
2022-05-30T11:58:00,mfh,44.70
2022-05-30T11:59:00,mfh,44.87
2022-05-30T12:00:00,mfh,44.18
2022-05-30T12:01:00,mfh,44.25
2022-05-30T12:02:00,mfh,44.22
2022-05-30T12:03:00,mfh,34.51
2022-05-30T12:04:00,mfh,34.42
2022-05-30T12:05:00,mfh,34.94
2022-05-30T12:06:00,mfh,34.81
2022-05-30T12:07:00,mfh,35.04
2022-05-30T12:08:00,mfh,33.58
2022-05-30T12:09:00,mfh,33.26
2022-05-30T12:10:00,mfh,32.96
2022-05-30T12:11:00,mfh,33.08
2022-05-30T12:12:00,mfh,33.04
2022-05-30T12:13:00,mfh,33.77
2022-05-30T12:14:00,mfh,34.75
2022-05-30T12:15:00,mfh,33.85
2022-05-30T12:16:00,mfh,33.89
2022-05-30T12:17:00,mfh,33.26
2022-05-30T12:18:00,mfh,33.20
2022-05-30T12:19:00,mfh,33.47
2022-05-30T12:20:00,mfh,33.50
2022-05-30T12:21:00,mfh,34.33
2022-05-30T12:22:00,mfh,34.05
2022-05-30T12:23:00,mfh,34.23
2022-05-30T12:24:00,mfh,34.62
2022-05-30T12:25:00,mfh,33.65
2022-05-30T12:26:00,mfh,33.58
2022-05-30T12:27:00,mfh,33.45
2022-05-30T12:28:00,mfh,33.34
2022-05-30T12:29:00,mfh,34.40
2022-05-30T12:30:00,mfh,33.78
2022-05-30T12:31:00,mfh,33.79
2022-05-30T12:32:00,mfh,33.73
2022-05-30T12:33:00,mfh,33.80
2022-05-30T12:34:00,mfh,33.12
2022-05-30T12:35:00,mfh,33.14
2022-05-30T12:36:00,mfh,33.10
2022-05-30T12:37:00,mfh,33.28
2022-05-30T12:38:00,mfh,33.77
2022-05-30T12:39:00,mfh,33.56
2022-05-30T12:40:00,mfh,33.66
2022-05-30T12:41:00,mfh,33.67
2022-05-30T12:42:00,mfh,34.36
2022-05-30T12:43:00,mfh,34.97
2022-05-30T12:44:00,mfh,34.48
2022-05-30T12:45:00,mfh,34.55
2022-05-30T12:46:00,mfh,35.20
2022-05-30T12:47:00,mfh,35.34
2022-05-30T12:48:00,mfh,35.23
2022-05-30T12:49:00,mfh,34.94
2022-05-30T12:50:00,mfh,33.98
2022-05-30T12:51:00,mfh,34.07
2022-05-30T12:52:00,mfh,34.11
2022-05-30T12:53:00,mfh,34.15
2022-05-30T12:54:00,mfh,34.81
2022-05-30T12:55:00,mfh,35.35
2022-05-30T12:56:00,mfh,35.34
2022-05-30T12:57:00,mfh,35.33
2022-05-30T12:58:00,mfh,35.45
2022-05-30T12:59:00,mfh,35.47
2022-05-30T13:00:00,mfh,35.44
2022-05-30T13:01:00,mfh,35.25
2022-05-30T13:02:00,mfh,35.39
2022-05-30T13:03:00,mfh,35.00
2022-05-30T13:04:00,mfh,34.98
2022-05-30T13:05:00,mfh,34.35
2022-05-30T13:06:00,mfh,33.75
2022-05-30T13:07:00,mfh,33.65
2022-05-30T13:08:00,mfh,33.60
2022-05-30T13:09:00,mfh,33.70
2022-05-30T13:10:00,mfh,33.72
2022-05-30T13:11:00,mfh,34.37
2022-05-30T13:12:00,mfh,34.34
2022-05-30T13:13:00,mfh,34.32
2022-05-30T13:14:00,mfh,34.78
2022-05-30T13:15:00,mfh,33.81
2022-05-30T13:16:00,mfh,33.81
2022-05-30T13:17:00,mfh,33.96
2022-05-30T13:18:00,mfh,33.18